User: anonymous   Login
Location: Guayaquil
(2.1667°S, 79.9000°W)
Time: 01:24:29
(UTC-05:00)
Language:

NEE 01 PEGASUS - Orbit

View from above orbital plane
View from above orbital plane
View from above satellite
View from above satellite

Ground track
Ground track

The orbit data is extracted from the following two-line orbital elements,

1 39151U 13018B   20224.76594134  .00000099  00000-0  20057-4 0  9997
2 39151  97.9752 323.2074 0015583 282.1262  77.8204 14.80188872393860
Epoch (UTC): 11 August 2020 18:22:57
Eccentricity: 0.0015583
inclination: 97.9752°
perigee height: 618 km
apogee height: 639 km
right ascension of ascending node: 323.2074°
argument of perigee: 282.1262°
revolutions per day: 14.80188872
mean anomaly at epoch: 77.8204°
orbit number at epoch: 39386

The dashed part of the orbit path shows where the satellite is in the earth's shadow,  

DLR